Weather in Khorobut

Russia / Sakha (Yakutia) Republic     61°50′00″N   130°45′13″E
temp.,
°C
wind,
m/s
gust,
m/s
humid.,
%
clouds,
%
prec.,
mm/h
press.,
hPa
HPBL,
m
13 june, sun
sun1300:00+10nw3873100 0.0 1011536
03:00+8nnw2790100 0.1 1011353
06:00+8nw1498100 1.0 1012236
09:00+8w2598100 4.2 1012292
12:00+9wsw1294100 2.4 1011156
15:00+11s128099 2.8 1010396
18:00+12wsw247799 0.5 1009381
21:00+10ssw258361 0.6 100997
14 june, mon
mon1400:00+9sse258778 0.0 1008112
03:00+5s23964 0.0 100960
06:00+11wsw24690 0.0 1009164
09:00+18wnw23380 0.0 1008798
12:00+22w11292 0.0 10072229
15:00+23ese112783 0.0 10062414
18:00+21se223330 0.0 10052123
21:00+14se2259100 0.0 100512
15 june, tue
tue1500:00+11ese2875100 0.0 1006156
03:00+9e2686100 0.0 1005102
06:00+13ene3770100 0.0 1004221
09:00+16ene3654100 0.0 1003524
12:00+17ne3452100 0.0 1002798
15:00+20nne344697 0.0 10021302
18:00+20n2547100 0.0 10011805
21:00+15w117077 0.0 100210
16 june, wed
wed1600:00+11wnw227779 0.0 100214
03:00+9nw228577 0.0 100228
06:00+13nw265998 0.0 1002230
09:00+18nw3435100 0.0 1002640
12:00+22nw3427100 0.0 10011273
15:00+23nw2326100 0.0 10011889
18:00+23w2342100 0.0 1002240
21:00+17w2356100 0.0 100350
17 june, thu
thu1700:00+16n2354100 0.0 100451
03:00+13e3115697 0.0 1007311
06:00+14e31143100 0.0 1008446
09:00+18ene3428100 0.0 1009843
12:00+22ne4628100 0.0 10071677
15:00+24ne4627100 0.0 10062037
18:00+23ese3537100 0.0 10061186
21:00+17nne1258100 0.0 100612